Location: Drocourt
(49.0571°N, 1.7669°E)
Time: 07:22:12
(UTC+00:00)

Cosmos 2154 Rocket - Pass Details

Date: 09 February 2023
Orbit: 965 x 997 km, 82.9° (Epoch: 21 March)

Event Time Altitude Azimuth Distance (km) Brightness Sun altitude
Rises 19:08:51 0° 354° (N) 3,729 7.1 -21.0°
Reaches altitude 10° 19:11:35 10° 2° (N) 2,773 6.4 -21.5°
Enters shadow 19:17:24 40° 68° (ENE) 1,421 4.4 -22.4°
